Weather History for Cincinnati, OH

Change the Weather History Date:

Friday, June 28, 2013

  Actual Average Record
Temperature  
Mean Temperature 74 °F -  
Max Temperature 86 °F 85 °F 102 °F (2012)
Min Temperature 63 °F 63 °F 52 °F (1950)
Cooling Degree Days 10    
Growing Degree Days 24 (Base 50)    
Moisture  
Dew Point 64 °F    
Average Humidity 71    
Maximum Humidity 100    
Minimum Humidity 41    
Precipitation  
Precipitation 0.08 in - - ()
Sea Level Pressure  
Sea Level Pressure 29.65 in    
Wind  
Wind Speed 8 mph (West)    
Max Wind Speed 20 mph    
Max Gust Speed 30 mph    
Visibility 10 miles    
Events Rain    
Averages and records for this station are not official NWS values.
T = Trace of Precipitation, MM = Missing Value Source: NWS Daily Summary

Daily Weather History Graph

Daily Weather History Graph

Search for Another Location

Airport:

Trip Planner

Search our weather history database for the weather conditions in past years. The results will help you decide how hot, cold, wet, or windy it might be!

Date:

Astronomy

Jun. 28, 2013 Rise Set
Actual Time 6:14 AM EDT 9:07 PM EDT
Civil Twilight 5:42 AM EDT 9:39 PM EDT
Nautical Twilight 5:01 AM EDT 10:20 PM EDT
Astronomical Twilight 4:14 AM EDT 11:06 PM EDT
Moon 12:07 AM EDT (6/28) 12:17 PM EDT (6/28)
Length of Visible Light 15h 57m
Length of Day
14h 53m
Waning Gibbous, 66% of the Moon is Illuminated
Jun 28
Waning Gibbous
Jun 30
Last Quarter
Jul 8
New
Jul 15
First Quarter
Jul 22
Full

Hourly Weather History & Observations

Time (EDT) Temp. Heat Index Dew Point Humidity Pressure Visibility Wind Dir Wind Speed Gust Speed Precip Events Conditions
12:53 AM 70.0 °F - 69.1 °F 97% 29.71 in 9.0 mi Calm Calm - N/A   Clear
1:53 AM 72.0 °F - 69.1 °F 91% 29.70 in 10.0 mi SW 4.6 mph - N/A   Clear
2:53 AM 75.9 °F - 70.0 °F 82% 29.68 in 10.0 mi WSW 8.1 mph - N/A   Partly Cloudy
3:53 AM 75.0 °F - 70.0 °F 84% 29.67 in 10.0 mi WSW 10.4 mph - N/A   Clear
4:53 AM 73.9 °F - 68.0 °F 82% 29.66 in 10.0 mi WSW 8.1 mph - N/A   Clear
5:53 AM 73.0 °F - 66.9 °F 81% 29.67 in 10.0 mi WSW 4.6 mph - N/A   Clear
6:53 AM 73.0 °F - 66.0 °F 79% 29.67 in 10.0 mi West 11.5 mph - N/A   Partly Cloudy
7:53 AM 73.9 °F - 66.0 °F 76% 29.67 in 10.0 mi WSW 8.1 mph - N/A   Clear
8:53 AM 77.0 °F - 66.0 °F 69% 29.67 in 10.0 mi West 10.4 mph - N/A   Clear
9:53 AM 79.0 °F - 66.9 °F 66% 29.66 in 10.0 mi WSW 9.2 mph - N/A   Clear
10:53 AM 81.0 °F 83.8 °F 68.0 °F 65% 29.65 in 10.0 mi WSW 10.4 mph - N/A   Clear
11:53 AM 82.9 °F 84.6 °F 64.9 °F 54% 29.65 in 10.0 mi WSW 16.1 mph 20.7 mph N/A   Scattered Clouds
12:53 PM 84.0 °F 84.5 °F 62.1 °F 47% 29.65 in 10.0 mi West 13.8 mph 23.0 mph N/A   Scattered Clouds
1:53 PM 86.0 °F 86.3 °F 62.1 °F 44% 29.63 in 10.0 mi WNW 10.4 mph 21.9 mph N/A   Partly Cloudy
2:53 PM 84.9 °F 84.4 °F 59.0 °F 41% 29.61 in 10.0 mi West 16.1 mph 25.3 mph N/A   Scattered Clouds
3:53 PM 84.9 °F 84.8 °F 60.1 °F 43% 29.60 in 10.0 mi West 17.3 mph 24.2 mph N/A   Scattered Clouds
4:50 PM 84.2 °F 83.8 °F 59.0 °F 42% 29.61 in 10.0 mi West 19.6 mph 25.3 mph N/A   Mostly Cloudy
4:53 PM 84.0 °F 83.8 °F 59.0 °F 43% 29.59 in 10.0 mi West 16.1 mph 25.3 mph N/A   Mostly Cloudy
5:53 PM 78.1 °F - 57.9 °F 50% 29.61 in 10.0 mi North 18.4 mph 29.9 mph N/A   Mostly Cloudy
6:00 PM 77.0 °F - 59.0 °F 54% 29.63 in 10.0 mi North 17.3 mph 24.2 mph N/A   Mostly Cloudy
6:53 PM 66.9 °F - 63.0 °F 87% 29.65 in 10.0 mi Calm Calm - 0.07 in   Overcast
7:53 PM 66.9 °F - 64.9 °F 93% 29.64 in 10.0 mi Calm Calm - N/A   Mostly Cloudy
8:53 PM 68.0 °F - 66.0 °F 93% 29.63 in 10.0 mi Calm Calm - 0.00 in   Mostly Cloudy
9:53 PM 64.9 °F - 64.9 °F 100% 29.63 in 10.0 mi Calm Calm - N/A   Clear
10:53 PM 63.0 °F - 63.0 °F 100% 29.63 in 4.0 mi South 3.5 mph - N/A   Partly Cloudy
11:53 PM 66.0 °F - 64.9 °F 96% 29.63 in 6.0 mi South 3.5 mph - 0.01 in Rain Light Rain